Location: Unspecified
(0.0000°N, 0.0000°E)
Time: 20:20:18
(UTC+00:00)

GALILEO-FM3 - Visible Passes

Search period start: 19 June 2018 00:00
Search period end: 29 June 2018 00:00
Orbit: 23206 x 23238 km, 54.9° (Epoch: 18 June)

Date Brightness Start Highest point End Pass type
(mag) Time Alt. Az. Time Alt. Az. Time Alt. Az.
20 Jun ? 05:04:48 10° NNW 08:04:29 55° W 17:33:38 10° NE visible
21 Jun ? 15:57:27 10° SSW 19:16:35 68° W 04:14:43 10° SE visible
23 Jun ? 02:47:34 10° NNW 06:29:00 81° W 14:08:05 10° ENE visible
24 Jun ? 13:24:23 10° SSW 17:41:02 85° E 21:30:57 10° NNE visible
25 Jun ? 20:08:50 10° SW 21:45:45 18° W 08:18:47 10° SSE visible
27 Jun ? 06:44:42 10° NW 16:05:32 59° E 19:11:15 10° NNE visible
